map of YYQ home
Great Circle Mapper logo
YYQ - Airport
Location
City:  Churchill, Manitoba, Canada
ICAO / IATA:CYYQ / YYQ

Details
Type:Airport (Airfield)
Use:Public/Civil
Latitude:5844'21"N (58.739167)
Longitude:9403'54"W (-94.064999)
Datum:WGS 1984
Elevation:94 ft (29 m)
Runways:2
Longest:9200 × 160 ft (2804 × 49 m), paved

Time
Time Zone:UTC-6 (DST-5)
Local Time:

Weather
METAR:CYYQ 201700Z 35011KT 6SM BR SCT008 OVC013 04/02 A2980 RMK SF4SC4 SLP091
TAF:CYYQ 201738Z 2018/2118 35010KT P6SM OVC015
TEMPO 2018/2104 4SM BR BKN008 OVC015
FM210400 30008KT P6SM BKN020
FM210800 23010KT P6SM FEW030
FM211600 23015G25KT P6SM SCT060
RMK NXT FCST BY 210000Z

Related Locations
Nearby:
Farthest:YWKS: 11462 mi / 18447 km
Wilkins Runway (Casey), Upper Peterson Glacier, AQ

Find:

   beyond  
but within

Other Information
Maps:
NOTAMs:
Links:
Sources:

  
flag of Canada
flag of Manitoba
  

Airport Diagram

Airport diagram for YYQ

Airport diagram PDF

Sectional Chart

Flight Planning
at skyvector.com

Satellite Image

Google Maps Satellite View

 

Copyright © 2004-2014 Karl L. Swartz. All rights reserved.
The Great Circle Mapper name and logo are trademarks of the Great Circle Mapper.
All other trademarks mentioned herein belong to their respective owners.
Please see credits for attibutions and further copyright information.

  Follow gcmap on Facebook Follow gcmap on Twitter

hCard Microformat

Geo Microformat